DateTimeUTC,F1_A11,F1_S11,BsB_S11,BsG_S11,BsR_S11,BbsB_S11,BbsG_S11,BbsR_S11,BaB_A11,BaG_A11,BaR_A11,Tu_S11,T_S11,Uu_S11,U_S11,P_S11,T1_A11
2021-07-13T02:00:00Z,00000200,20000000,,,,,,,-000.49,-000.21,-000.13,18.6,25.4,08.3,05.5,0671.1,31.1
2021-07-13T02:01:00Z,00000200,20000000,,,,,,,0000.17,0000.21,-000.13,18.7,25.4,08.3,05.5,0671.1,31.1
2021-07-13T02:02:00Z,00000200,20000000,,,,,,,0000.14,-000.14,0000.02,18.7,25.4,08.3,05.5,0671.1,31.1
2021-07-13T02:03:00Z,00000200,60000000,,,,,,,-000.27,0000.09,0000.33,18.7,25.4,08.3,05.5,0671.1,31.1
2021-07-13T02:04:00Z,00000200,40000000,0001.96,0002.00,0001.15,0000.50,0000.34,0000.34,0000.17,0000.16,0000.07,18.9,25.3,08.2,05.5,0672.0,31.1
2021-07-13T02:05:00Z,00000200,00000000,0002.19,0001.58,0001.29,-000.22,0000.42,0000.27,0000.20,-000.12,-000.13,18.9,25.2,08.2,05.6,0672.1,31.1
2021-07-13T02:06:00Z,00000200,00000000,0002.60,0001.38,0001.30,0000.46,0000.17,0000.12,-000.03,0000.49,0000.14,18.9,25.2,08.2,05.6,0672.1,31.1
2021-07-13T02:07:00Z,00000200,00000000,0001.64,0001.39,0000.77,0000.08,0000.36,0000.11,0000.40,0000.13,0000.34,18.9,25.2,08.2,05.6,0672.1,31.0
2021-07-13T02:08:00Z,00000200,00000000,0002.79,0001.63,0000.95,0000.28,0000.12,0000.31,-000.19,0000.02,0000.06,18.8,25.2,08.2,05.6,0672.0,31.0
2021-07-13T02:09:00Z,00000200,00000000,0002.03,0001.45,0000.70,-000.03,0000.32,0000.20,0000.30,-000.19,-000.10,18.8,25.2,08.1,05.5,0672.0,31.0
2021-07-13T02:10:00Z,00000200,00000000,0002.31,0001.60,0000.89,-000.34,0000.68,-000.02,0000.04,0000.12,0000.00,18.8,25.1,08.1,05.5,0672.0,31.0
2021-07-13T02:11:00Z,00000200,00000000,0001.86,0001.44,0001.09,0000.55,0000.21,0000.27,0000.05,0000.29,-000.09,18.8,25.1,08.0,05.4,0672.0,31.0
2021-07-13T02:12:00Z,00000200,00000000,0002.03,0001.69,0001.10,0000.13,0000.24,0000.41,0000.28,0000.09,0000.46,18.8,25.1,08.0,05.5,0672.0,31.0
2021-07-13T02:13:00Z,00000200,00000000,0002.61,0001.52,0000.83,0000.01,0000.32,0000.15,-000.12,-000.25,-000.14,18.8,25.1,08.0,05.5,0672.0,31.0
2021-07-13T02:14:00Z,00000200,00000000,0001.99,0001.59,0001.01,0000.97,0000.50,-000.07,0000.10,0000.17,-000.13,18.8,25.1,07.9,05.4,0672.0,31.0
2021-07-13T02:15:00Z,00000200,00000000,0002.66,0001.18,0000.72,0000.07,0000.38,0000.06,-000.07,0000.25,0000.50,18.9,25.1,07.9,05.4,0672.0,31.1
2021-07-13T02:16:00Z,00000200,00000000,0002.08,0001.72,0001.03,0000.55,0000.25,0000.19,0000.28,0000.01,-000.38,18.9,25.2,08.0,05.4,0672.0,31.1
2021-07-13T02:17:00Z,00000200,00000000,0002.07,0001.58,0000.83,0000.43,0000.27,0000.15,0000.05,0000.16,0000.27,18.9,25.2,08.0,05.4,0672.0,31.1
2021-07-13T02:18:00Z,00000200,00000000,0002.46,0001.74,0001.06,0000.34,0000.35,0000.60,-000.27,0000.09,0000.18,18.9,25.2,07.9,05.4,0671.9,31.1
2021-07-13T02:19:00Z,00000200,00000000,0002.17,0001.72,0000.97,0000.23,0000.29,-000.09,0000.23,-000.23,-000.16,18.9,25.2,07.9,05.4,0671.9,31.1
2021-07-13T02:20:00Z,00000200,00000000,0002.35,0001.11,0000.91,-000.38,0000.31,0000.08,0000.11,0000.01,0000.12,18.9,25.2,07.9,05.4,0671.9,31.1
2021-07-13T02:21:00Z,00000200,00000000,0001.82,0001.87,0000.78,0000.32,0000.32,0000.18,0000.19,0000.34,0000.06,18.9,25.1,07.9,05.4,0671.9,31.1
2021-07-13T02:22:00Z,00000200,00000000,0003.13,0001.31,0000.81,0000.44,0000.37,0000.37,0000.25,0000.03,-000.00,18.8,25.1,07.8,05.3,0671.9,31.0
2021-07-13T02:23:00Z,00000200,00000000,0002.86,0001.66,0001.07,0000.54,0000.44,0000.18,0000.36,-000.02,0000.28,18.8,25.1,07.9,05.4,0671.9,31.0
2021-07-13T02:24:00Z,00000200,00000000,0002.18,0001.62,0000.85,0000.00,0000.15,0000.09,-000.25,0000.20,-000.22,18.8,25.1,07.9,05.4,0671.9,31.0
2021-07-13T02:25:00Z,00000200,00000000,0002.41,0001.19,0000.53,0000.08,0000.32,-000.29,0000.19,0000.30,0000.29,18.8,25.1,07.9,05.4,0671.9,31.0
2021-07-13T02:26:00Z,00000200,00000000,0002.79,0001.25,0000.98,0000.04,0000.46,0000.00,-000.08,-000.33,-000.00,18.8,25.1,07.8,05.3,0671.9,31.0
2021-07-13T02:27:00Z,00000200,00010000,0002.46,0001.43,0000.76,0000.42,0000.43,0000.38,0000.22,0000.39,-000.22,18.7,25.1,07.8,05.3,0671.8,31.0
2021-07-13T02:28:00Z,00000200,00000000,0002.02,0001.02,0000.98,-000.00,0000.36,0000.18,0000.37,0000.17,0000.24,18.7,25.1,07.8,05.3,0671.8,31.0
2021-07-13T02:29:00Z,00000200,00000000,0002.16,0001.63,0001.12,0000.09,0000.51,0000.27,-000.18,0000.09,0000.18,18.8,25.1,07.8,05.3,0671.8,31.1
2021-07-13T02:30:00Z,00000200,00000000,0002.53,0001.14,0001.05,-000.56,0000.44,0000.24,0000.02,-000.08,0000.01,18.9,25.1,07.7,05.3,0671.8,31.1
2021-07-13T02:31:00Z,00000200,00000000,0002.53,0001.66,0000.71,0000.75,0000.10,-000.22,0000.03,0000.17,0000.36,18.9,25.2,07.7,05.3,0671.8,31.1
2021-07-13T02:32:00Z,00000200,00000000,0002.29,0001.77,0001.02,0000.47,0000.13,0000.03,-000.12,0000.18,-000.08,18.9,25.2,07.6,05.2,0671.8,31.1
2021-07-13T02:33:00Z,00000200,00000000,0002.32,0001.41,0000.75,0000.62,0000.14,0000.14,0000.40,-000.15,0000.01,18.9,25.2,07.6,05.2,0671.8,31.1
2021-07-13T02:34:00Z,00000200,00000000,0002.28,0001.41,0000.84,0000.35,0000.37,-000.20,0000.09,-000.00,-000.02,18.9,25.2,07.6,05.2,0671.8,31.1
2021-07-13T02:35:00Z,00000200,00000000,0002.00,0001.67,0000.68,0000.36,0000.24,0000.09,-000.14,-000.05,0000.16,18.9,25.1,07.6,05.2,0671.8,31.1
2021-07-13T02:36:00Z,00000200,00000000,0002.58,0001.32,0000.95,0000.26,0000.37,0000.27,0000.37,0000.45,-000.06,18.9,25.1,07.6,05.2,0671.8,31.0
2021-07-13T02:37:00Z,00000200,00000000,0002.33,0001.01,0001.08,0000.10,0000.18,0000.38,0000.10,0000.09,0000.42,18.8,25.1,07.6,05.2,0671.8,31.0
2021-07-13T02:38:00Z,00000200,00000000,0002.02,0001.19,0000.95,0000.11,0000.26,-000.09,0000.09,-000.06,0000.03,18.8,25.1,07.6,05.2,0671.8,31.1
2021-07-13T02:39:00Z,00000200,00000000,0002.80,0001.30,0000.97,0000.07,0000.06,0000.08,-000.01,0000.01,0000.14,18.8,25.1,07.5,05.1,0671.8,31.0
2021-07-13T02:40:00Z,00000200,00000000,0001.93,0001.03,0000.98,-000.19,-000.20,0000.26,0000.36,0000.24,0000.12,18.8,25.0,07.6,05.2,0671.8,31.0
2021-07-13T02:41:00Z,00000200,00000000,0002.37,0001.80,0000.94,0000.36,0000.10,0000.11,0000.05,0000.04,-000.15,18.7,25.0,07.6,05.2,0671.8,31.0
2021-07-13T02:42:00Z,00000200,00000000,0002.80,0001.49,0000.65,0000.05,0000.16,-000.02,0000.27,0000.27,0000.19,18.7,25.0,07.7,05.2,0671.7,31.0
2021-07-13T02:43:00Z,00000200,00000000,0002.17,0001.30,0000.93,0000.50,0000.26,0000.40,-000.02,0000.05,0000.06,18.7,25.0,07.7,05.3,0671.7,31.1
2021-07-13T02:44:00Z,00000200,00000000,0002.68,0001.14,0001.04,0000.56,0000.13,0000.19,0000.17,0000.14,0000.26,18.8,25.0,07.6,05.2,0671.7,31.1
2021-07-13T02:45:00Z,00000200,00000000,0001.99,0001.49,0000.84,0000.41,0000.17,0000.38,-000.17,0000.03,-000.41,18.8,25.1,07.6,05.2,0671.7,31.1
2021-07-13T02:46:00Z,00000200,00000000,0002.21,0001.26,0000.87,0000.30,0000.13,-000.19,0000.31,0000.25,0000.25,18.9,25.1,07.6,05.2,0671.7,31.1
2021-07-13T02:47:00Z,00000200,00000000,0002.35,0001.30,0000.59,0000.29,0000.05,0000.16,-000.15,-000.10,0000.26,18.9,25.1,07.6,05.2,0671.7,31.1
2021-07-13T02:48:00Z,00000200,00000000,0001.98,0001.03,0001.29,0000.28,0000.56,0000.15,-000.01,0000.12,0000.23,18.9,25.2,07.6,05.2,0671.7,31.1
2021-07-13T02:49:00Z,00000200,00000000,0002.00,0001.60,0000.90,-000.01,0000.14,-000.11,0000.59,0000.23,-000.10,18.9,25.1,07.6,05.2,0671.7,31.1
2021-07-13T02:50:00Z,00000200,00000000,0002.07,0001.41,0000.95,-000.42,0000.05,0000.03,-000.19,0000.10,0000.01,18.9,25.1,07.6,05.2,0671.7,31.1
2021-07-13T02:51:00Z,00000200,00000000,0002.26,0001.20,0000.65,-000.29,0000.23,0000.02,0000.05,0000.27,0000.01,18.9,25.1,07.7,05.2,0671.7,31.0
2021-07-13T02:52:00Z,00000200,00000000,0002.06,0001.23,0000.65,0000.61,0000.17,-000.25,0000.50,-000.17,0000.35,18.8,25.1,07.7,05.2,0671.7,31.0
2021-07-13T02:53:00Z,00000200,00000000,0002.02,0001.19,0000.96,0000.56,0000.17,0000.15,0000.07,0000.29,0000.10,18.8,25.1,07.7,05.3,0671.7,31.0
2021-07-13T02:54:00Z,00000200,00000000,0001.39,0001.18,0000.67,0000.76,-000.07,-000.02,0000.15,0000.05,0000.18,18.8,25.1,07.8,05.3,0671.7,31.0
2021-07-13T02:55:00Z,00000200,00000000,0002.29,0001.46,0000.58,0000.45,0000.05,-000.01,-000.01,0000.28,0000.06,18.8,25.0,07.8,05.3,0671.7,31.0
2021-07-13T02:56:00Z,00000200,00000000,0002.55,0001.03,0000.59,0000.41,0000.52,0000.24,0000.25,0000.08,0000.09,18.7,25.0,07.9,05.4,0671.7,31.0
2021-07-13T02:57:00Z,00000200,40000000,,,,,,,0000.09,0000.10,0000.45,18.8,25.1,08.4,05.7,0671.8,31.0
2021-07-13T02:58:00Z,00000200,60000000,,,,,,,0000.04,0000.04,-000.32,18.5,25.1,08.2,05.4,0670.7,31.0
2021-07-13T02:59:00Z,00000200,20000000,,,,,,,0000.16,0000.16,0000.26,18.5,25.2,07.9,05.2,0670.7,31.0
